Regional Weather Roundup
Issued by NWS

Home | Current Version | Previous Version | Graphics & Text | Print | Product List | Glossary On
Versions: 1 2 3 4 5 6 7 8 9 10 11 12 13 14 15 16 17 18 19 20 21 22 23 24 25 26 27 28 29 30 31 32 33 34 35 36 37 38 39 40 41 42 43 44 45 46 47 48 49 50
883
ASUS43 KDTX 281710
RWRMI
MICHIGAN HOURLY REGIONAL WEATHER ROUNDUP
NATIONAL WEATHER SERVICE DETROIT/PONTIAC MI
100 PM EDT TUE MAR 28 2017

NOTE: "FAIR" INDICATES FEW OR NO CLOUDS BELOW 12,000 FEET WITH NO
SIGNIFICANT WEATHER AND/OR OBSTRUCTION TO VISIBILITY.

MIZ047>049-052>055-059>063-066>070-074>076-081>083-281800-
SOUTHEAST LOWER MICHIGAN

CITY           SKY/WX    TMP DP  RH WIND       PRES   REMARKS
ADRIAN         CLOUDY    47  40  76 N10       30.07R
ANN ARBOR      CLOUDY    46  38  73 N10       30.06R
BAD AXE        CLOUDY    41  35  79 NE12G17   30.11R
CARO           CLOUDY    41  37  83 N9        30.10S
DETROIT CITY   CLOUDY    45  38  76 N12       30.06R
DETROIT        CLOUDY    47  38  71 N13       30.06S
FLINT          CLOUDY    42  37  82 N12       30.10R
GROSSE ILE     CLOUDY    47  38  73 N12       30.04S
HILLSDALE      CLOUDY    45  37  76 N5        30.06R
HOWELL         CLOUDY    42  37  83 N3        30.08R

CITY           SKY/WX    TMP DP  RH WIND       PRES   REMARKS
JACKSON        CLOUDY    45  37  73 NE8       30.07R
LAMBERTVILLE   CLOUDY    49  41  72 N7        30.05R
LANSING        CLOUDY    44  38  79 NE10      30.10S
LAPEER         CLOUDY    41  37  87 NE9       30.09R
MASON          CLOUDY    43  38  84 N10       30.08S
MONROE         CLOUDY    47  40  77 N8        30.05R
MT. CLEMENS    CLOUDY    43  41  91 N15       30.05R
PONTIAC        CLOUDY    43  37  79 N12       30.06R
PORT HOPE        N/A     38  34  85 N10       30.10R WCI  31
PORT HURON     CLOUDY    43  36  75 N13G18    30.07S
TRI CITIES     CLOUDY    42  36  79 NE15      30.13R
MIDLAND        CLOUDY    42  36  80 E8        30.12S
TROY           CLOUDY    45  37  74 N10       30.08R
SAGINAW HB     CLOUDY    41  34  75 NE13      30.12R
$$
MIZ043>046-050>051-056>058-064>065-071>073-077>080-281800-
SOUTHWEST LOWER MICHIGAN

CITY           SKY/WX    TMP DP  RH WIND       PRES   REMARKS
BATTLE CREEK   CLOUDY    45  39  79 NE10      30.08S
BENTON HARBOR  CLOUDY    43  37  79 VRB6      30.11R
BIG RAPIDS     CLOUDY    43  35  74 CALM      30.11S
COLDWATER      CLOUDY    46  40  81 NE9       30.06S
FREMONT        CLOUDY    45  36  72 NE3       30.11R
HOLLAND        CLOUDY    47  38  71 VRB3      30.12R
GRAND RAPIDS   CLOUDY    45  40  82 E7        30.10R
IONIA          CLOUDY    43  38  83 NE10      30.09S
KALAMAZOO      CLOUDY    46  38  73 N9        30.09S
LUDINGTON      PTSUNNY   47  38  72 E8        30.12S
MARSHALL       CLOUDY    44  40  85 NE6       30.07S
MOUNT PLEASANT CLOUDY    44  35  71 NE7       30.11S
MUSKEGON       CLOUDY    48  38  68 E7        30.13R
SOUTH HAVEN    CLOUDY    44  39  84 NW6       30.10R
$$
MIZ016>042-281800-
NORTHERN LOWER MICHIGAN

CITY           SKY/WX    TMP DP  RH WIND       PRES   REMARKS
ALPENA         SUNNY     47  32  56 NE6       30.13S
BEAVER ISLAND  CLOUDY    41  35  79 N6        30.17R
BELLAIRE       MOSUNNY   45  35  67 N3        30.14S
CADILLAC       CLOUDY    44  35  71 NE3       30.10S
CHARLEVOIX     PTSUNNY   38  36  89 N10G16    30.18S WCI  32
FRANKFORT      CLOUDY    43  35  74 NE7       30.15R
GAYLORD        CLOUDY    42  33  70 VRB3      30.11S
GRAYLING       MOSUNNY   45  34  65 NE6       30.11S
HARBOR SPRINGS MOSUNNY   41  35  77 SW7       30.14S
HOUGHTON LAKE  PTSUNNY   46  34  62 NE8       30.11S
MANISTEE       MOSUNNY   45  36  70 NE6       30.13S
OSCODA         SUNNY     45  34  65 NE14      30.12S
PELLSTON       SUNNY     46  32  58 VRB3      30.15S
ROGERS CITY    SUNNY     39  34  81 NW8       30.16R WCI  34
TRAVERSE CITY  CLOUDY    41  35  79 N7        30.14R
$$
MIZ007>008-015-281800-
EASTERN UPPER MICHIGAN

CITY           SKY/WX    TMP DP  RH WIND       PRES   REMARKS
KINROSS        PTSUNNY   39  34  82 N5        30.15S
MACKINAC ISLAN SUNNY     41  35  77 NE3       30.15S
NEWBERRY       SUNNY     39  38  97 CALM      30.15S
S. S. MARIE    SUNNY     41  33  73 W6        30.14S
MUNISING         N/A     40  34  79 CALM      30.17R
$$
MIZ004>006-011>014-085-281800-
CENTRAL UPPER MICHIGAN

CITY           SKY/WX    TMP DP  RH WIND       PRES   REMARKS
MANISTIQUE     SUNNY     39  37  93 SW6       30.17R WCI  35
ESCANABA       PTSUNNY   37  33  85 S5        30.19R WCI  33
MENOMINEE        N/A     36  33  89 MISG        N/A
SAWYER-GWINN   SUNNY     48  32  53 NE3       30.15R
$$
MIZ001>003-009>011-084-281800-
WESTERN UPPER MICHIGAN

CITY           SKY/WX    TMP DP  RH WIND       PRES   REMARKS
IRON MOUNTAIN  SUNNY     52  29  41 VRB7      30.14S
HOUGHTON       SUNNY     47  33  58 NW10      30.15R
COPPER HARBOR    N/A     39  33  79 N12       30.17R WCI  32
IRONWOOD       SUNNY     52  30  43 VRB3      30.16S
$$

ABBREVIATIONS USED IN REMARKS
   TC - TEMPERATURE IN CELSIUS
  WCI - WIND CHILL INDEX
   HX - HEAT INDEX
  VSB - VISIBILITY





USA.gov is the U.S. government's official web portal to all federal, state and local government web resources and services.